VTD105 URWA-URML

Flight info

Callsign VTD105
Flight time 2h 37m
Altitude 8000
Route G DCT UP DCT KZ DCT MKL
Aircraft C172/L-SDY/C

Departure

Time 2026-04-17 12:48
Airport Astrakhan Narimanovo Boris M. Kustodiev International Airport (URWA)

Arrival

Time 2026-04-17 15:25
Airport Makhachkala Uytash International Airport (URML)
Time Latitude Longitude Altitude Speed Heading
2026-04-17 12:30 46.28584 48.00028 -58 ft 0 kts
2026-04-17 12:42 46.28585 48.00028 -58 ft 0 kts
2026-04-17 12:42 46.28589 48.00029 -58 ft 0 kts
2026-04-17 12:42 46.28609 48.00049 -58 ft 5 kts 78°
2026-04-17 12:43 46.28573 48.00081 -58 ft 9 kts 186°
2026-04-17 12:43 46.28500 48.00067 -58 ft 9 kts 187°
2026-04-17 12:43 46.28489 48.00065 -58 ft 0 kts 186°
2026-04-17 12:46 46.28479 48.00063 -58 ft 4 kts 186°
2026-04-17 12:46 46.28412 48.00051 -58 ft 12 kts 187°
2026-04-17 12:46 46.28369 48.00089 -58 ft 4 kts 99°
2026-04-17 12:46 46.28369 48.00092 -58 ft 0 kts 96°
2026-04-17 12:47 46.28368 48.00106 -58 ft 12 kts 95°
2026-04-17 12:47 46.28332 48.00534 -52 ft 67 kts 98°
2026-04-17 12:47 46.28278 48.01197 163 ft 65 kts 98°
2026-04-17 12:47 46.28233 48.01880 329 ft 70 kts 98°
2026-04-17 12:48 46.28195 48.02583 494 ft 73 kts 96°
2026-04-17 12:48 46.28159 48.03323 689 ft 74 kts 101°
2026-04-17 12:48 46.28113 48.04047 902 ft 73 kts 99°
2026-04-17 12:48 46.28046 48.04757 1100 ft 72 kts 112°
2026-04-17 12:49 46.27638 48.05074 1278 ft 75 kts 189°
2026-04-17 12:49 46.27291 48.04484 1409 ft 89 kts 260°
2026-04-17 12:49 46.27491 48.03659 1641 ft 85 kts 290°
2026-04-17 12:49 46.27687 48.02852 1791 ft 90 kts 291°
2026-04-17 12:50 46.27911 48.02063 2021 ft 83 kts 288°
2026-04-17 12:50 46.28100 48.01248 2182 ft 85 kts 277°
2026-04-17 12:50 46.28227 48.00423 2362 ft 84 kts 277°
2026-04-17 12:50 46.28338 47.99583 2537 ft 85 kts 278°
2026-04-17 12:51 46.28455 47.98739 2701 ft 86 kts 277°
2026-04-17 12:51 46.28565 47.97890 2888 ft 83 kts 275°
2026-04-17 12:51 46.28422 47.97118 3029 ft 83 kts 233°
2026-04-17 12:51 46.28074 47.96435 3174 ft 85 kts 225°
2026-04-17 12:52 46.27773 47.95656 3330 ft 88 kts 239°
2026-04-17 12:52 46.27520 47.94864 3506 ft 86 kts 240°
2026-04-17 12:52 46.27271 47.94073 3668 ft 86 kts 240°
2026-04-17 12:52 46.27018 47.93289 3826 ft 86 kts 237°
2026-04-17 12:53 46.26722 47.92525 3985 ft 86 kts 234°
2026-04-17 12:53 46.26409 47.91754 4071 ft 95 kts 234°
2026-04-17 12:53 46.26088 47.90962 4280 ft 89 kts 234°
2026-04-17 12:53 46.25780 47.90198 4444 ft 88 kts 234°
2026-04-17 12:54 46.25471 47.89429 4597 ft 88 kts 234°
2026-04-17 12:54 46.25165 47.88670 4745 ft 88 kts 234°
2026-04-17 12:54 46.24853 47.87896 4902 ft 87 kts 234°
2026-04-17 12:54 46.24551 47.87157 5062 ft 86 kts 234°
2026-04-17 12:55 46.24227 47.86426 5213 ft 85 kts 227°
2026-04-17 12:55 46.23844 47.85759 5361 ft 85 kts 224°
2026-04-17 12:55 46.23484 47.85080 5506 ft 86 kts 229°
2026-04-17 12:55 46.23133 47.84377 5650 ft 86 kts 229°
2026-04-17 12:56 46.22784 47.83678 5792 ft 86 kts 229°
2026-04-17 12:56 46.22432 47.82975 5933 ft 86 kts 229°
2026-04-17 12:56 46.22076 47.82262 6074 ft 87 kts 229°
2026-04-17 12:56 46.21724 47.81560 6210 ft 87 kts 229°
2026-04-17 12:57 46.21366 47.80848 6348 ft 87 kts 229°
2026-04-17 12:57 46.21004 47.80129 6484 ft 87 kts 229°
2026-04-17 12:57 46.20650 47.79428 6615 ft 87 kts 229°
2026-04-17 12:57 46.20291 47.78718 6747 ft 88 kts 229°
2026-04-17 12:58 46.19929 47.78003 6877 ft 88 kts 230°
2026-04-17 12:58 46.19568 47.77290 7005 ft 88 kts 230°
2026-04-17 12:58 46.19206 47.76578 7132 ft 88 kts 230°
2026-04-17 12:58 46.18839 47.75858 7258 ft 88 kts 230°
2026-04-17 12:59 46.18479 47.75152 7376 ft 88 kts 230°
2026-04-17 12:59 46.18110 47.74427 7483 ft 90 kts 231°
2026-04-17 12:59 46.17782 47.73653 7589 ft 91 kts 236°
2026-04-17 12:59 46.17465 47.72851 7699 ft 91 kts 236°
2026-04-17 13:00 46.17152 47.72052 7806 ft 92 kts 237°
2026-04-17 13:00 46.16838 47.71245 7913 ft 92 kts 237°
2026-04-17 13:00 46.16526 47.70444 8017 ft 92 kts 237°
2026-04-17 13:00 46.16208 47.69625 8123 ft 92 kts 237°
2026-04-17 13:01 46.15891 47.68809 8201 ft 96 kts 237°
2026-04-17 13:01 46.15557 47.67946 8213 ft 102 kts 237°
2026-04-17 13:01 46.15199 47.67018 8215 ft 110 kts 237°
2026-04-17 13:01 46.14816 47.66026 8213 ft 116 kts 238°
2026-04-17 13:02 46.14415 47.64982 8212 ft 120 kts 238°
2026-04-17 13:02 46.14004 47.63911 8211 ft 122 kts 238°
2026-04-17 13:02 46.13582 47.62814 8211 ft 123 kts 238°
2026-04-17 13:02 46.13157 47.61707 8210 ft 124 kts 238°
2026-04-17 13:03 46.12735 47.60608 8209 ft 123 kts 238°
2026-04-17 13:03 46.12315 47.59517 8209 ft 122 kts 238°
2026-04-17 13:03 46.11899 47.58434 8210 ft 121 kts 238°
2026-04-17 13:03 46.11489 47.57369 8210 ft 121 kts 238°
2026-04-17 13:04 46.11074 47.56290 8210 ft 121 kts 238°
2026-04-17 13:04 46.10659 47.55213 8210 ft 120 kts 238°
2026-04-17 13:04 46.10242 47.54131 8210 ft 120 kts 238°
2026-04-17 13:04 46.09829 47.53056 8210 ft 120 kts 238°
2026-04-17 13:05 46.09418 47.51991 8210 ft 120 kts 238°
2026-04-17 13:05 46.09002 47.50912 8210 ft 120 kts 238°
2026-04-17 13:05 46.08586 47.49836 8210 ft 120 kts 238°
2026-04-17 13:05 46.08179 47.48780 8210 ft 120 kts 238°
2026-04-17 13:06 46.07761 47.47695 8210 ft 120 kts 238°
2026-04-17 13:06 46.07351 47.46637 8210 ft 120 kts 238°
2026-04-17 13:06 46.06933 47.45554 8210 ft 120 kts 238°
2026-04-17 13:06 46.06523 47.44490 8210 ft 120 kts 238°
2026-04-17 13:07 46.06110 47.43425 8210 ft 120 kts 238°
2026-04-17 13:07 46.05692 47.42345 8210 ft 120 kts 238°
2026-04-17 13:07 46.05285 47.41291 8210 ft 120 kts 238°
2026-04-17 13:07 46.04872 47.40223 8210 ft 120 kts 238°
2026-04-17 13:08 46.04468 47.39180 8210 ft 120 kts 238°
2026-04-17 13:08 46.04060 47.38126 8210 ft 120 kts 238°
2026-04-17 13:08 46.03648 47.37062 8210 ft 120 kts 238°
2026-04-17 13:08 46.03242 47.36015 8210 ft 120 kts 238°
2026-04-17 13:09 46.02834 47.34962 8210 ft 120 kts 237°
2026-04-17 13:09 46.02425 47.33913 8209 ft 120 kts 237°
2026-04-17 13:09 46.02012 47.32864 8209 ft 120 kts 237°
2026-04-17 13:09 46.01601 47.31816 8209 ft 120 kts 237°
2026-04-17 13:10 46.01188 47.30763 8209 ft 120 kts 237°
2026-04-17 13:10 46.00779 47.29718 8209 ft 120 kts 237°
2026-04-17 13:10 46.00368 47.28666 8209 ft 120 kts 237°
2026-04-17 13:10 45.99958 47.27616 8209 ft 120 kts 237°
2026-04-17 13:11 45.99544 47.26557 8209 ft 120 kts 237°
2026-04-17 13:11 45.99137 47.25516 8209 ft 120 kts 237°
2026-04-17 13:11 45.98713 47.24427 8209 ft 120 kts 236°
2026-04-17 13:11 45.98270 47.23284 8209 ft 120 kts 236°
2026-04-17 13:12 45.97826 47.22148 8209 ft 119 kts 236°
2026-04-17 13:12 45.96923 47.19836 8209 ft 119 kts 236°
2026-04-17 13:12 45.96483 47.18709 8209 ft 119 kts 236°
2026-04-17 13:13 45.96041 47.17577 8209 ft 119 kts 236°
2026-04-17 13:13 45.95588 47.16419 8209 ft 119 kts 236°
2026-04-17 13:13 45.95140 47.15272 8209 ft 119 kts 236°
2026-04-17 13:13 45.94697 47.14139 8209 ft 119 kts 236°
2026-04-17 13:14 45.94250 47.12997 8209 ft 119 kts 236°
2026-04-17 13:14 45.93797 47.11837 8209 ft 119 kts 236°
2026-04-17 13:14 45.93347 47.10687 8209 ft 119 kts 236°
2026-04-17 13:14 45.92902 47.09550 8209 ft 119 kts 236°
2026-04-17 13:15 45.92448 47.08390 8209 ft 119 kts 236°
2026-04-17 13:15 45.91976 47.07248 8206 ft 117 kts 225°
2026-04-17 13:15 45.91201 47.06712 8210 ft 111 kts 187°
2026-04-17 13:15 45.90343 47.06553 8209 ft 111 kts 183°
2026-04-17 13:16 45.89520 47.06429 8210 ft 111 kts 183°
2026-04-17 13:16 45.88685 47.06306 8211 ft 111 kts 183°
2026-04-17 13:16 45.87833 47.06180 8211 ft 112 kts 183°
2026-04-17 13:16 45.86990 47.06056 8211 ft 112 kts 183°
2026-04-17 13:17 45.86123 47.05929 8211 ft 112 kts 183°
2026-04-17 13:17 45.85268 47.05804 8211 ft 112 kts 183°
2026-04-17 13:17 45.84403 47.05677 8211 ft 112 kts 183°
2026-04-17 13:17 45.83540 47.05551 8211 ft 112 kts 183°
2026-04-17 13:18 45.82729 47.05432 8211 ft 112 kts 183°
2026-04-17 13:18 45.81949 47.05318 8211 ft 112 kts 183°
2026-04-17 13:18 45.81182 47.05207 8211 ft 112 kts 183°
2026-04-17 13:18 45.80405 47.05093 8211 ft 112 kts 183°
2026-04-17 13:19 45.79568 47.04971 8211 ft 112 kts 183°
2026-04-17 13:19 45.78710 47.04846 8211 ft 112 kts 183°
2026-04-17 13:19 45.77839 47.04707 8211 ft 112 kts 184°
2026-04-17 13:19 45.76983 47.04560 8211 ft 112 kts 184°
2026-04-17 13:20 45.76122 47.04412 8211 ft 112 kts 184°
2026-04-17 13:20 45.75273 47.04266 8211 ft 112 kts 184°
2026-04-17 13:20 45.74466 47.04128 8210 ft 112 kts 184°
2026-04-17 13:20 45.73685 47.04003 8211 ft 113 kts 184°
2026-04-17 13:21 45.72904 47.03882 8211 ft 113 kts 184°
2026-04-17 13:21 45.72133 47.03764 8210 ft 113 kts 184°
2026-04-17 13:21 45.71349 47.03643 8210 ft 113 kts 184°
2026-04-17 13:21 45.70563 47.03523 8210 ft 113 kts 184°
2026-04-17 13:22 45.69787 47.03404 8210 ft 113 kts 184°
2026-04-17 13:22 45.68999 47.03284 8210 ft 113 kts 184°
2026-04-17 13:22 45.68224 47.03142 8210 ft 113 kts 186°
2026-04-17 13:22 45.67444 47.02963 8210 ft 113 kts 187°
2026-04-17 13:23 45.66663 47.02781 8210 ft 113 kts 187°
2026-04-17 13:23 45.65890 47.02602 8210 ft 113 kts 187°
2026-04-17 13:23 45.65107 47.02419 8210 ft 113 kts 187°
2026-04-17 13:23 45.64336 47.02240 8210 ft 113 kts 187°
2026-04-17 13:24 45.63554 47.02058 8210 ft 113 kts 187°
2026-04-17 13:24 45.62776 47.01877 8210 ft 113 kts 187°
2026-04-17 13:24 45.61999 47.01697 8210 ft 113 kts 187°
2026-04-17 13:24 45.61216 47.01524 8210 ft 113 kts 185°
2026-04-17 13:25 45.60433 47.01399 8210 ft 113 kts 184°
2026-04-17 13:25 45.59655 47.01280 8210 ft 113 kts 184°
2026-04-17 13:25 45.58879 47.01163 8210 ft 113 kts 184°
2026-04-17 13:25 45.58091 47.01043 8210 ft 113 kts 184°
2026-04-17 13:26 45.57307 47.00925 8210 ft 113 kts 184°
2026-04-17 13:26 45.56527 47.00807 8210 ft 113 kts 184°
2026-04-17 13:26 45.55743 47.00688 8210 ft 113 kts 184°
2026-04-17 13:26 45.54967 47.00571 8210 ft 113 kts 184°
2026-04-17 13:27 45.54178 47.00427 8210 ft 113 kts 186°
2026-04-17 13:27 45.53397 47.00269 8210 ft 113 kts 186°
2026-04-17 13:27 45.52623 47.00111 8210 ft 113 kts 186°
2026-04-17 13:27 45.51840 46.99952 8210 ft 113 kts 186°
2026-04-17 13:28 45.51064 46.99794 8210 ft 113 kts 186°
2026-04-17 13:28 45.50288 46.99636 8210 ft 113 kts 186°
2026-04-17 13:28 45.49501 46.99475 8210 ft 113 kts 186°
2026-04-17 13:28 45.48725 46.99318 8210 ft 113 kts 186°
2026-04-17 13:29 45.47948 46.99160 8210 ft 113 kts 186°
2026-04-17 13:29 45.47167 46.99001 8210 ft 113 kts 186°
2026-04-17 13:29 45.46389 46.98843 8210 ft 113 kts 186°
2026-04-17 13:29 45.45611 46.98685 8210 ft 113 kts 186°
2026-04-17 13:30 45.44832 46.98527 8210 ft 113 kts 186°
2026-04-17 13:30 45.44054 46.98370 8210 ft 113 kts 186°
2026-04-17 13:30 45.43269 46.98210 8210 ft 113 kts 186°
2026-04-17 13:30 45.42493 46.98053 8210 ft 113 kts 186°
2026-04-17 13:31 45.41717 46.97897 8210 ft 113 kts 186°
2026-04-17 13:31 45.40932 46.97738 8210 ft 113 kts 186°
2026-04-17 13:31 45.40155 46.97581 8210 ft 113 kts 186°
2026-04-17 13:31 45.39377 46.97424 8210 ft 113 kts 186°
2026-04-17 13:32 45.38598 46.97266 8210 ft 113 kts 186°
2026-04-17 13:32 45.37815 46.97109 8210 ft 113 kts 186°
2026-04-17 13:32 45.37043 46.96942 8210 ft 113 kts 187°
2026-04-17 13:32 45.36264 46.96765 8210 ft 113 kts 187°
2026-04-17 13:33 45.35489 46.96588 8210 ft 113 kts 187°
2026-04-17 13:33 45.34704 46.96409 8210 ft 113 kts 187°
2026-04-17 13:33 45.33932 46.96233 8210 ft 113 kts 187°
2026-04-17 13:33 45.33149 46.96055 8210 ft 113 kts 187°
2026-04-17 13:34 45.32372 46.95878 8210 ft 113 kts 187°
2026-04-17 13:34 45.31598 46.95702 8210 ft 113 kts 187°
2026-04-17 13:34 45.30816 46.95524 8210 ft 113 kts 187°
2026-04-17 13:34 45.30043 46.95348 8210 ft 113 kts 187°
2026-04-17 13:35 45.29263 46.95171 8210 ft 113 kts 187°
2026-04-17 13:35 45.28485 46.94994 8210 ft 113 kts 187°
2026-04-17 13:35 45.27713 46.94819 8210 ft 113 kts 187°
2026-04-17 13:35 45.26936 46.94643 8210 ft 113 kts 187°
2026-04-17 13:36 45.26160 46.94467 8210 ft 113 kts 187°
2026-04-17 13:36 45.25378 46.94289 8210 ft 113 kts 187°
2026-04-17 13:36 45.24596 46.94114 8209 ft 113 kts 187°
2026-04-17 13:36 45.23817 46.93952 8210 ft 114 kts 187°
2026-04-17 13:37 45.23029 46.93795 8210 ft 114 kts 187°
2026-04-17 13:37 45.22245 46.93638 8210 ft 114 kts 187°
2026-04-17 13:37 45.21468 46.93482 8210 ft 114 kts 187°
2026-04-17 13:37 45.20682 46.93325 8210 ft 114 kts 187°
2026-04-17 13:38 45.19893 46.93167 8210 ft 114 kts 187°
2026-04-17 13:38 45.19105 46.93009 8210 ft 114 kts 187°
2026-04-17 13:38 45.18313 46.92851 8210 ft 114 kts 187°
2026-04-17 13:38 45.17530 46.92695 8210 ft 114 kts 187°
2026-04-17 13:39 45.16748 46.92539 8210 ft 114 kts 187°
2026-04-17 13:39 45.15953 46.92380 8210 ft 114 kts 187°
2026-04-17 13:39 45.15175 46.92225 8210 ft 114 kts 187°
2026-04-17 13:39 45.14386 46.92087 8210 ft 114 kts 185°
2026-04-17 13:40 45.13594 46.91969 8210 ft 114 kts 185°
2026-04-17 13:40 45.12807 46.91854 8210 ft 114 kts 185°
2026-04-17 13:40 45.12011 46.91737 8210 ft 114 kts 185°
2026-04-17 13:40 45.11225 46.91622 8210 ft 114 kts 185°
2026-04-17 13:41 45.10433 46.91506 8210 ft 114 kts 185°
2026-04-17 13:41 45.09643 46.91391 8210 ft 114 kts 185°
2026-04-17 13:41 45.08850 46.91275 8210 ft 114 kts 185°
2026-04-17 13:41 45.08067 46.91160 8210 ft 114 kts 185°
2026-04-17 13:42 45.07274 46.91044 8210 ft 114 kts 185°
2026-04-17 13:42 45.06489 46.90930 8209 ft 114 kts 185°
2026-04-17 13:42 45.05698 46.90815 8209 ft 114 kts 185°
2026-04-17 13:42 45.04904 46.90699 8209 ft 114 kts 185°
2026-04-17 13:43 45.04122 46.90585 8209 ft 114 kts 185°
2026-04-17 13:43 45.03334 46.90470 8209 ft 114 kts 185°
2026-04-17 13:43 45.02535 46.90355 8209 ft 114 kts 185°
2026-04-17 13:43 45.01751 46.90241 8209 ft 114 kts 185°
2026-04-17 13:44 45.00964 46.90126 8209 ft 114 kts 185°
2026-04-17 13:44 45.00171 46.90012 8209 ft 114 kts 185°
2026-04-17 13:44 44.99386 46.89898 8209 ft 114 kts 185°
2026-04-17 13:44 44.98587 46.89782 8209 ft 114 kts 185°
2026-04-17 13:45 44.97803 46.89669 8209 ft 114 kts 185°
2026-04-17 13:45 44.97008 46.89554 8209 ft 114 kts 185°
2026-04-17 13:45 44.96224 46.89440 8209 ft 114 kts 185°
2026-04-17 13:45 44.95435 46.89326 8209 ft 114 kts 185°
2026-04-17 13:46 44.94644 46.89212 8209 ft 114 kts 185°
2026-04-17 13:46 44.93853 46.89098 8209 ft 114 kts 185°
2026-04-17 13:46 44.93064 46.88984 8209 ft 114 kts 185°
2026-04-17 13:46 44.92274 46.88871 8209 ft 114 kts 185°
2026-04-17 13:47 44.91487 46.88757 8209 ft 114 kts 185°
2026-04-17 13:47 44.90697 46.88644 8209 ft 114 kts 185°
2026-04-17 13:47 44.89910 46.88530 8209 ft 114 kts 185°
2026-04-17 13:47 44.89120 46.88417 8211 ft 114 kts 185°
2026-04-17 13:48 44.88321 46.88302 8211 ft 114 kts 185°
2026-04-17 13:48 44.87529 46.88189 8211 ft 114 kts 185°
2026-04-17 13:48 44.86740 46.88075 8211 ft 114 kts 185°
2026-04-17 13:48 44.85945 46.87961 8211 ft 114 kts 185°
2026-04-17 13:49 44.85152 46.87844 8210 ft 114 kts 186°
2026-04-17 13:49 44.84356 46.87694 8189 ft 116 kts 186°
2026-04-17 13:49 44.83544 46.87536 8127 ft 120 kts 187°
2026-04-17 13:49 44.82720 46.87376 8104 ft 117 kts 187°
2026-04-17 13:50 44.81922 46.87220 8102 ft 115 kts 187°
2026-04-17 13:50 44.81139 46.87068 8102 ft 114 kts 187°
2026-04-17 13:50 44.80356 46.86915 8102 ft 113 kts 187°
2026-04-17 13:50 44.79569 46.86762 8102 ft 113 kts 187°
2026-04-17 13:51 44.78788 46.86610 8103 ft 114 kts 187°
2026-04-17 13:51 44.78005 46.86457 8103 ft 114 kts 187°
2026-04-17 13:51 44.77220 46.86305 8102 ft 114 kts 187°
2026-04-17 13:51 44.76426 46.86150 8102 ft 114 kts 187°
2026-04-17 13:52 44.75639 46.85998 8102 ft 114 kts 187°
2026-04-17 13:52 44.74852 46.85845 8102 ft 115 kts 187°
2026-04-17 13:52 44.74057 46.85693 8102 ft 115 kts 187°
2026-04-17 13:52 44.73268 46.85545 8102 ft 115 kts 187°
2026-04-17 13:53 44.72477 46.85399 8102 ft 115 kts 187°
2026-04-17 13:53 44.71688 46.85252 8102 ft 115 kts 187°
2026-04-17 13:53 44.70899 46.85107 8102 ft 115 kts 187°
2026-04-17 13:53 44.70100 46.84959 8102 ft 115 kts 187°
2026-04-17 13:54 44.68522 46.84668 8102 ft 115 kts 187°
2026-04-17 13:54 44.67733 46.84522 8102 ft 115 kts 187°
2026-04-17 13:55 44.66150 46.84230 8102 ft 115 kts 186°
2026-04-17 13:55 44.65358 46.84084 8102 ft 115 kts 186°
2026-04-17 13:55 44.63779 46.83793 8102 ft 115 kts 186°
2026-04-17 13:56 44.62201 46.83519 8102 ft 115 kts 186°
2026-04-17 13:56 44.61408 46.83393 8102 ft 115 kts 186°
2026-04-17 13:56 44.60606 46.83266 8102 ft 115 kts 186°
2026-04-17 13:57 44.59816 46.83142 8102 ft 115 kts 186°
2026-04-17 13:57 44.59027 46.83017 8102 ft 115 kts 186°
2026-04-17 13:57 44.57440 46.82767 8102 ft 115 kts 186°
2026-04-17 13:58 44.56639 46.82642 8102 ft 115 kts 186°
2026-04-17 13:58 44.55058 46.82393 8102 ft 115 kts 186°
2026-04-17 13:58 44.54263 46.82268 8102 ft 115 kts 186°
2026-04-17 13:59 44.52679 46.82020 8102 ft 115 kts 186°
2026-04-17 13:59 44.51886 46.81895 8102 ft 115 kts 186°
2026-04-17 13:59 44.51092 46.81771 8102 ft 115 kts 186°
2026-04-17 14:00 44.50294 46.81646 8102 ft 115 kts 186°
2026-04-17 14:00 44.49506 46.81522 8102 ft 115 kts 186°
2026-04-17 14:00 44.48708 46.81398 8102 ft 115 kts 186°
2026-04-17 14:00 44.47921 46.81275 8102 ft 115 kts 186°
2026-04-17 14:01 44.47122 46.81150 8102 ft 115 kts 186°
2026-04-17 14:01 44.46333 46.81027 8102 ft 115 kts 186°
2026-04-17 14:01 44.45532 46.80901 8102 ft 115 kts 186°
2026-04-17 14:01 44.44746 46.80779 8102 ft 115 kts 186°
2026-04-17 14:02 44.43953 46.80655 8102 ft 115 kts 186°
2026-04-17 14:02 44.43159 46.80532 8102 ft 115 kts 185°
2026-04-17 14:02 44.42368 46.80409 8102 ft 115 kts 185°
2026-04-17 14:02 44.41569 46.80284 8102 ft 115 kts 185°
2026-04-17 14:03 44.40774 46.80161 8102 ft 115 kts 185°
2026-04-17 14:03 44.39978 46.80036 8102 ft 115 kts 185°
2026-04-17 14:03 44.39190 46.79914 8102 ft 115 kts 185°
2026-04-17 14:03 44.38392 46.79791 8102 ft 115 kts 185°
2026-04-17 14:04 44.37603 46.79668 8102 ft 115 kts 185°
2026-04-17 14:04 44.36814 46.79546 8102 ft 115 kts 185°
2026-04-17 14:04 44.36015 46.79422 8102 ft 115 kts 185°
2026-04-17 14:04 44.35218 46.79298 8102 ft 115 kts 185°
2026-04-17 14:05 44.34431 46.79178 8102 ft 115 kts 185°
2026-04-17 14:05 44.33633 46.79073 8102 ft 115 kts 185°
2026-04-17 14:05 44.32838 46.78970 8102 ft 115 kts 185°
2026-04-17 14:05 44.32041 46.78867 8102 ft 115 kts 185°
2026-04-17 14:06 44.31252 46.78766 8102 ft 115 kts 185°
2026-04-17 14:06 44.30459 46.78663 8102 ft 115 kts 185°
2026-04-17 14:06 44.29659 46.78560 8102 ft 115 kts 185°
2026-04-17 14:06 44.28873 46.78459 8102 ft 115 kts 185°
2026-04-17 14:07 44.28073 46.78357 8102 ft 115 kts 185°
2026-04-17 14:07 44.27284 46.78255 8102 ft 115 kts 185°
2026-04-17 14:07 44.26479 46.78152 8102 ft 115 kts 185°
2026-04-17 14:07 44.25684 46.78050 8102 ft 115 kts 185°
2026-04-17 14:08 44.24886 46.77948 8102 ft 115 kts 184°
2026-04-17 14:08 44.24102 46.77845 8102 ft 113 kts 185°
2026-04-17 14:08 44.23325 46.77742 8101 ft 112 kts 185°
2026-04-17 14:08 44.22539 46.77645 8101 ft 111 kts 185°
2026-04-17 14:09 44.21770 46.77552 8101 ft 111 kts 185°
2026-04-17 14:09 44.21000 46.77459 8101 ft 111 kts 185°
2026-04-17 14:09 44.20234 46.77366 8101 ft 110 kts 184°
2026-04-17 14:09 44.19472 46.77274 8101 ft 110 kts 184°
2026-04-17 14:10 44.18709 46.77182 8101 ft 110 kts 184°
2026-04-17 14:10 44.17945 46.77090 8101 ft 110 kts 184°
2026-04-17 14:10 44.17178 46.76998 8101 ft 110 kts 184°
2026-04-17 14:10 44.16423 46.76907 8101 ft 110 kts 184°
2026-04-17 14:11 44.15655 46.76815 8101 ft 110 kts 184°
2026-04-17 14:11 44.14895 46.76724 8101 ft 110 kts 184°
2026-04-17 14:11 44.14127 46.76631 8101 ft 110 kts 184°
2026-04-17 14:11 44.13364 46.76540 8101 ft 110 kts 184°
2026-04-17 14:12 44.12597 46.76448 8101 ft 110 kts 184°
2026-04-17 14:12 44.11836 46.76357 8101 ft 110 kts 184°
2026-04-17 14:12 44.11076 46.76266 8101 ft 110 kts 184°
2026-04-17 14:13 44.09548 46.76083 8101 ft 110 kts 184°
2026-04-17 14:13 44.08787 46.75992 8101 ft 110 kts 184°
2026-04-17 14:13 44.08017 46.75900 8101 ft 110 kts 184°
2026-04-17 14:13 44.07260 46.75810 8101 ft 110 kts 184°
2026-04-17 14:14 44.06488 46.75718 8101 ft 110 kts 184°
2026-04-17 14:14 44.05727 46.75627 8101 ft 110 kts 184°
2026-04-17 14:14 44.04961 46.75536 8101 ft 110 kts 184°
2026-04-17 14:14 44.04196 46.75445 8101 ft 110 kts 184°
2026-04-17 14:15 44.03437 46.75355 8101 ft 110 kts 184°
2026-04-17 14:15 44.02668 46.75264 8101 ft 110 kts 184°
2026-04-17 14:15 44.01908 46.75173 8101 ft 110 kts 184°
2026-04-17 14:15 44.01149 46.75083 8101 ft 110 kts 184°
2026-04-17 14:16 44.00381 46.74992 8101 ft 110 kts 184°
2026-04-17 14:16 43.99620 46.74902 8101 ft 110 kts 184°
2026-04-17 14:16 43.98854 46.74813 8101 ft 110 kts 184°
2026-04-17 14:16 43.98088 46.74723 8101 ft 110 kts 184°
2026-04-17 14:17 43.97332 46.74635 8101 ft 110 kts 184°
2026-04-17 14:17 43.96561 46.74545 8101 ft 110 kts 184°
2026-04-17 14:17 43.95795 46.74456 8101 ft 110 kts 184°
2026-04-17 14:17 43.95036 46.74367 8101 ft 110 kts 184°
2026-04-17 14:18 43.94267 46.74278 8101 ft 110 kts 184°
2026-04-17 14:18 43.93500 46.74189 8101 ft 110 kts 184°
2026-04-17 14:18 43.92743 46.74101 8101 ft 110 kts 184°
2026-04-17 14:18 43.91975 46.74011 8101 ft 110 kts 184°
2026-04-17 14:19 43.91208 46.73922 8101 ft 110 kts 184°
2026-04-17 14:19 43.90448 46.73834 8101 ft 110 kts 184°
2026-04-17 14:19 43.89679 46.73745 8102 ft 110 kts 184°
2026-04-17 14:19 43.88916 46.73656 8103 ft 110 kts 184°
2026-04-17 14:20 43.88144 46.73567 8103 ft 111 kts 184°
2026-04-17 14:20 43.87376 46.73478 8103 ft 111 kts 184°
2026-04-17 14:20 43.86610 46.73390 8103 ft 111 kts 184°
2026-04-17 14:20 43.85839 46.73301 8103 ft 111 kts 184°
2026-04-17 14:21 43.85070 46.73212 8103 ft 111 kts 184°
2026-04-17 14:21 43.84304 46.73124 8103 ft 111 kts 184°
2026-04-17 14:21 43.83538 46.73035 8103 ft 111 kts 184°
2026-04-17 14:21 43.82763 46.72946 8103 ft 111 kts 184°
2026-04-17 14:22 43.82005 46.73005 8100 ft 111 kts 159°
2026-04-17 14:22 43.81342 46.73568 8103 ft 112 kts 147°
2026-04-17 14:22 43.80705 46.74198 8103 ft 112 kts 147°
2026-04-17 14:22 43.80069 46.74808 8103 ft 112 kts 147°
2026-04-17 14:23 43.79427 46.75420 8103 ft 112 kts 147°
2026-04-17 14:23 43.78784 46.76032 8103 ft 112 kts 147°
2026-04-17 14:23 43.78141 46.76645 8103 ft 112 kts 147°
2026-04-17 14:23 43.77504 46.77251 8103 ft 112 kts 147°
2026-04-17 14:24 43.76857 46.77868 8103 ft 112 kts 147°
2026-04-17 14:24 43.76218 46.78476 8103 ft 112 kts 147°
2026-04-17 14:24 43.75577 46.79087 8103 ft 112 kts 147°
2026-04-17 14:24 43.74939 46.79695 8102 ft 112 kts 147°
2026-04-17 14:25 43.74292 46.80303 8103 ft 111 kts 147°
2026-04-17 14:25 43.73612 46.80933 8102 ft 111 kts 147°
2026-04-17 14:25 43.72979 46.81520 8102 ft 110 kts 147°
2026-04-17 14:25 43.72339 46.82115 8102 ft 110 kts 147°
2026-04-17 14:26 43.71674 46.82732 8102 ft 110 kts 147°
2026-04-17 14:26 43.70984 46.83372 8103 ft 110 kts 147°
2026-04-17 14:26 43.70330 46.83978 8103 ft 110 kts 147°
2026-04-17 14:26 43.69650 46.84609 8102 ft 110 kts 147°
2026-04-17 14:27 43.68999 46.85213 8102 ft 110 kts 147°
2026-04-17 14:27 43.68365 46.85813 8102 ft 110 kts 146°
2026-04-17 14:27 43.67731 46.86425 8102 ft 110 kts 146°
2026-04-17 14:27 43.67108 46.87026 8102 ft 110 kts 146°
2026-04-17 14:28 43.66469 46.87643 8102 ft 110 kts 146°
2026-04-17 14:28 43.65803 46.88287 8102 ft 110 kts 146°
2026-04-17 14:28 43.65127 46.88939 8102 ft 110 kts 146°
2026-04-17 14:28 43.64504 46.89542 8102 ft 110 kts 146°
2026-04-17 14:29 43.63873 46.90152 8102 ft 110 kts 146°
2026-04-17 14:29 43.63256 46.90747 8102 ft 110 kts 146°
2026-04-17 14:29 43.62630 46.91352 8102 ft 110 kts 146°
2026-04-17 14:29 43.62001 46.91960 8102 ft 110 kts 146°
2026-04-17 14:30 43.61374 46.92565 8102 ft 110 kts 146°
2026-04-17 14:30 43.60752 46.93166 8102 ft 110 kts 146°
2026-04-17 14:30 43.60123 46.93773 8102 ft 110 kts 146°
2026-04-17 14:30 43.59498 46.94377 8102 ft 110 kts 146°
2026-04-17 14:31 43.58875 46.94979 8102 ft 110 kts 146°
2026-04-17 14:31 43.58253 46.95580 8133 ft 107 kts 146°
2026-04-17 14:31 43.57621 46.96190 8035 ft 116 kts 146°
2026-04-17 14:31 43.56962 46.96823 8005 ft 115 kts 146°
2026-04-17 14:32 43.56307 46.97452 8000 ft 113 kts 146°
2026-04-17 14:32 43.55661 46.98074 8000 ft 112 kts 146°
2026-04-17 14:32 43.55019 46.98691 8000 ft 111 kts 146°
2026-04-17 14:32 43.54391 46.99294 8000 ft 110 kts 146°
2026-04-17 14:33 43.53757 46.99904 8000 ft 110 kts 146°
2026-04-17 14:33 43.53137 47.00501 8000 ft 110 kts 146°
2026-04-17 14:33 43.52497 47.01117 8000 ft 110 kts 146°
2026-04-17 14:33 43.51857 47.01733 8000 ft 109 kts 146°
2026-04-17 14:34 43.51214 47.02352 8000 ft 109 kts 146°
2026-04-17 14:34 43.50570 47.02972 8000 ft 109 kts 146°
2026-04-17 14:34 43.49932 47.03586 8000 ft 109 kts 146°
2026-04-17 14:34 43.49311 47.04184 8000 ft 109 kts 146°
2026-04-17 14:35 43.48691 47.04780 8000 ft 109 kts 146°
2026-04-17 14:35 43.48065 47.05383 8000 ft 109 kts 146°
2026-04-17 14:35 43.47443 47.05981 8000 ft 109 kts 146°
2026-04-17 14:35 43.46819 47.06582 8000 ft 109 kts 146°
2026-04-17 14:36 43.46196 47.07182 8000 ft 109 kts 146°
2026-04-17 14:36 43.45567 47.07787 8000 ft 109 kts 146°
2026-04-17 14:36 43.44947 47.08384 8000 ft 109 kts 146°
2026-04-17 14:36 43.44327 47.08980 8000 ft 109 kts 146°
2026-04-17 14:37 43.43705 47.09579 8000 ft 109 kts 146°
2026-04-17 14:37 43.43077 47.10183 8000 ft 109 kts 146°
2026-04-17 14:37 43.42453 47.10783 8000 ft 109 kts 146°
2026-04-17 14:37 43.41834 47.11379 8000 ft 109 kts 146°
2026-04-17 14:38 43.41211 47.11980 8000 ft 109 kts 146°
2026-04-17 14:38 43.40584 47.12583 8000 ft 109 kts 146°
2026-04-17 14:38 43.39964 47.13180 8000 ft 109 kts 146°
2026-04-17 14:38 43.39338 47.13782 8000 ft 110 kts 146°
2026-04-17 14:39 43.38716 47.14380 8000 ft 110 kts 146°
2026-04-17 14:39 43.38087 47.14986 8000 ft 110 kts 146°
2026-04-17 14:39 43.37461 47.15588 8000 ft 110 kts 146°
2026-04-17 14:39 43.36836 47.16189 8000 ft 110 kts 146°
2026-04-17 14:40 43.36205 47.16797 8000 ft 110 kts 146°
2026-04-17 14:40 43.35560 47.17417 8000 ft 110 kts 146°
2026-04-17 14:40 43.34916 47.18035 8000 ft 110 kts 146°
2026-04-17 14:40 43.34245 47.18681 8000 ft 110 kts 146°
2026-04-17 14:41 43.33555 47.19346 8000 ft 110 kts 146°
2026-04-17 14:41 43.32922 47.19955 8000 ft 110 kts 146°
2026-04-17 14:41 43.32297 47.20555 8000 ft 110 kts 146°
2026-04-17 14:41 43.31674 47.21154 8000 ft 110 kts 146°
2026-04-17 14:42 43.31043 47.21762 8000 ft 110 kts 146°
2026-04-17 14:42 43.30418 47.22363 8000 ft 110 kts 146°
2026-04-17 14:42 43.29796 47.22961 8000 ft 110 kts 146°
2026-04-17 14:42 43.29169 47.23564 8000 ft 110 kts 146°
2026-04-17 14:43 43.28537 47.24172 8000 ft 110 kts 146°
2026-04-17 14:43 43.27915 47.24771 8000 ft 110 kts 146°
2026-04-17 14:43 43.27246 47.25384 7996 ft 110 kts 156°
2026-04-17 14:43 43.26404 47.25605 8000 ft 109 kts 172°
2026-04-17 14:44 43.25560 47.25779 8000 ft 110 kts 168°
2026-04-17 14:44 43.24752 47.26028 8000 ft 110 kts 164°
2026-04-17 14:44 43.24026 47.26322 8000 ft 110 kts 162°
2026-04-17 14:44 43.23306 47.26669 8000 ft 110 kts 159°
2026-04-17 14:45 43.22586 47.27065 8000 ft 110 kts 157°
2026-04-17 14:45 43.21885 47.27491 8000 ft 111 kts 155°
2026-04-17 14:45 43.21186 47.27953 8000 ft 111 kts 154°
2026-04-17 14:45 43.20406 47.28507 8000 ft 111 kts 153°
2026-04-17 14:46 43.19642 47.29082 8000 ft 111 kts 151°
2026-04-17 14:46 43.18904 47.29663 8000 ft 111 kts 150°
2026-04-17 14:46 43.18165 47.30267 8000 ft 111 kts 149°
2026-04-17 14:46 43.17438 47.30881 8000 ft 111 kts 149°
2026-04-17 14:47 43.16708 47.31511 8000 ft 111 kts 148°
2026-04-17 14:47 43.15994 47.32141 8000 ft 111 kts 148°
2026-04-17 14:47 43.15293 47.32768 8000 ft 111 kts 148°
2026-04-17 14:47 43.14615 47.33383 8000 ft 111 kts 147°
2026-04-17 14:48 43.13945 47.33997 8000 ft 111 kts 147°
2026-04-17 14:48 43.13293 47.34599 8000 ft 111 kts 147°
2026-04-17 14:48 43.12637 47.35210 8000 ft 111 kts 147°
2026-04-17 14:48 43.11993 47.35811 8000 ft 111 kts 147°
2026-04-17 14:49 43.11337 47.36429 7999 ft 111 kts 146°
2026-04-17 14:49 43.10650 47.37077 7999 ft 111 kts 146°
2026-04-17 14:49 43.09957 47.37732 7999 ft 111 kts 146°
2026-04-17 14:49 43.09257 47.38396 7999 ft 111 kts 146°
2026-04-17 14:50 43.08572 47.39048 7999 ft 111 kts 146°
2026-04-17 14:50 43.07891 47.39697 7999 ft 111 kts 146°
2026-04-17 14:50 43.07218 47.40338 7999 ft 111 kts 146°
2026-04-17 14:50 43.06538 47.40987 7999 ft 111 kts 146°
2026-04-17 14:51 43.05841 47.41654 7999 ft 111 kts 146°
2026-04-17 14:51 43.05151 47.42314 7999 ft 111 kts 146°
2026-04-17 14:51 43.04454 47.42981 7999 ft 111 kts 146°
2026-04-17 14:51 43.03749 47.43655 7999 ft 111 kts 146°
2026-04-17 14:52 43.03040 47.44334 7999 ft 111 kts 146°
2026-04-17 14:52 43.02333 47.45011 7999 ft 111 kts 146°
2026-04-17 14:52 43.01623 47.45690 7999 ft 111 kts 146°
2026-04-17 14:52 43.00986 47.46301 7999 ft 111 kts 146°
2026-04-17 14:53 43.00351 47.46909 7999 ft 111 kts 146°
2026-04-17 14:53 42.99721 47.47512 7999 ft 111 kts 146°
2026-04-17 14:53 42.99084 47.48122 7999 ft 111 kts 146°
2026-04-17 14:53 42.98449 47.48730 7999 ft 111 kts 146°
2026-04-17 14:54 42.97813 47.49338 7999 ft 111 kts 146°
2026-04-17 14:54 42.97174 47.49950 7999 ft 111 kts 146°
2026-04-17 14:54 42.96472 47.50622 7999 ft 111 kts 146°
2026-04-17 14:54 42.95771 47.51292 7999 ft 111 kts 146°
2026-04-17 14:55 42.95063 47.51969 7999 ft 111 kts 146°
2026-04-17 14:55 42.94352 47.52649 7999 ft 111 kts 146°
2026-04-17 14:55 42.93644 47.53325 7999 ft 111 kts 146°
2026-04-17 14:55 42.92938 47.54001 7999 ft 111 kts 146°
2026-04-17 14:56 42.92224 47.54682 7999 ft 111 kts 146°
2026-04-17 14:56 42.91508 47.55365 7999 ft 111 kts 146°
2026-04-17 14:56 42.90800 47.56044 7999 ft 111 kts 146°
2026-04-17 14:56 42.90093 47.56723 7999 ft 111 kts 146°
2026-04-17 14:57 42.89389 47.57390 8001 ft 111 kts 146°
2026-04-17 14:57 42.88680 47.58059 8001 ft 111 kts 146°
2026-04-17 14:57 42.87974 47.58726 8001 ft 111 kts 146°
2026-04-17 14:57 42.87259 47.59403 8001 ft 111 kts 146°
2026-04-17 14:58 42.86555 47.60070 8001 ft 111 kts 146°
2026-04-17 14:58 42.85834 47.60753 8001 ft 112 kts 146°
2026-04-17 14:58 42.85143 47.61409 8001 ft 112 kts 146°
2026-04-17 14:58 42.84486 47.62032 8001 ft 112 kts 146°
2026-04-17 14:59 42.83820 47.62665 8001 ft 112 kts 146°
2026-04-17 14:59 42.83186 47.63267 8001 ft 112 kts 146°
2026-04-17 14:59 42.82550 47.63871 8001 ft 112 kts 146°
2026-04-17 14:59 42.81882 47.64496 8001 ft 111 kts 147°
2026-04-17 15:00 42.81232 47.65093 8001 ft 111 kts 147°
2026-04-17 15:00 42.80590 47.65687 8001 ft 112 kts 147°
2026-04-17 15:00 42.79951 47.66278 8001 ft 112 kts 147°
2026-04-17 15:00 42.79314 47.66895 8000 ft 112 kts 141°
2026-04-17 15:01 42.78875 47.67777 8002 ft 114 kts 120°
2026-04-17 15:01 42.78539 47.68760 8001 ft 115 kts 118°
2026-04-17 15:01 42.78203 47.69749 8001 ft 115 kts 122°
2026-04-17 15:01 42.77825 47.70714 8001 ft 116 kts 124°
2026-04-17 15:02 42.77407 47.71646 7996 ft 114 kts 140°
2026-04-17 15:02 42.76718 47.72028 7997 ft 107 kts 185°
2026-04-17 15:02 42.76070 47.71608 7998 ft 106 kts 229°
2026-04-17 15:02 42.75868 47.70634 7997 ft 111 kts 273°
2026-04-17 15:03 42.76259 47.69698 7999 ft 119 kts 313°
2026-04-17 15:03 42.76925 47.69032 8001 ft 121 kts 321°
2026-04-17 15:03 42.77639 47.68396 8001 ft 122 kts 322°
2026-04-17 15:03 42.78343 47.67770 8001 ft 122 kts 322°
2026-04-17 15:04 42.79063 47.67131 8001 ft 122 kts 322°
2026-04-17 15:04 42.79777 47.66521 7997 ft 124 kts 330°
2026-04-17 15:04 42.80660 47.66482 7997 ft 129 kts 17°
2026-04-17 15:04 42.81353 47.67254 7997 ft 129 kts 61°
2026-04-17 15:05 42.81501 47.68441 7997 ft 123 kts 106°
2026-04-17 15:05 42.81056 47.69404 8000 ft 116 kts 143°
2026-04-17 15:05 42.80397 47.70026 8001 ft 114 kts 153°
2026-04-17 15:05 42.79722 47.70602 8001 ft 115 kts 153°
2026-04-17 15:06 42.79045 47.71169 8001 ft 115 kts 153°
2026-04-17 15:06 42.78363 47.71740 8001 ft 115 kts 153°
2026-04-17 15:06 42.77660 47.72245 7996 ft 112 kts 172°
2026-04-17 15:06 42.76940 47.72043 7997 ft 108 kts 216°
2026-04-17 15:07 42.76574 47.71180 7997 ft 110 kts 259°
2026-04-17 15:07 42.76775 47.70155 8001 ft 116 kts 294°
2026-04-17 15:07 42.77210 47.69216 8001 ft 117 kts 299°
2026-04-17 15:07 42.77816 47.68452 8001 ft 121 kts 319°
2026-04-17 15:08 42.78500 47.67771 8001 ft 122 kts 318°
2026-04-17 15:08 42.79181 47.67083 8001 ft 122 kts 318°
2026-04-17 15:08 42.79857 47.66403 8000 ft 122 kts 320°
2026-04-17 15:08 42.80641 47.65901 8001 ft 125 kts 338°
2026-04-17 15:09 42.81473 47.65564 7901 ft 127 kts 340°
2026-04-17 15:09 42.82331 47.65229 7700 ft 128 kts 340°
2026-04-17 15:09 42.83179 47.64888 7503 ft 129 kts 340°
2026-04-17 15:09 42.84042 47.64534 7303 ft 130 kts 340°
2026-04-17 15:10 42.84907 47.64171 7105 ft 130 kts 340°
2026-04-17 15:10 42.85770 47.63802 6906 ft 131 kts 340°
2026-04-17 15:10 42.86639 47.63425 6708 ft 131 kts 340°
2026-04-17 15:11 42.88378 47.62659 6313 ft 132 kts 341°
2026-04-17 15:11 42.89253 47.62268 6116 ft 133 kts 341°
2026-04-17 15:11 42.90121 47.61878 5919 ft 132 kts 341°
2026-04-17 15:11 42.90993 47.61485 5719 ft 130 kts 342°
2026-04-17 15:12 42.91845 47.61098 5522 ft 129 kts 342°
2026-04-17 15:12 42.92690 47.60714 5326 ft 129 kts 343°
2026-04-17 15:12 42.93549 47.60323 5130 ft 131 kts 343°
2026-04-17 15:12 42.94408 47.59930 4936 ft 132 kts 344°
2026-04-17 15:13 42.95279 47.59532 4741 ft 132 kts 344°
2026-04-17 15:13 42.96156 47.59131 4544 ft 132 kts 344°
2026-04-17 15:13 42.97008 47.58741 4348 ft 130 kts 344°
2026-04-17 15:13 42.97870 47.58347 4149 ft 129 kts 344°
2026-04-17 15:14 42.98712 47.57960 3954 ft 128 kts 344°
2026-04-17 15:14 42.99547 47.57577 3759 ft 127 kts 344°
2026-04-17 15:14 43.00390 47.57189 3561 ft 127 kts 344°
2026-04-17 15:14 43.01207 47.56755 3361 ft 128 kts 328°
2026-04-17 15:15 43.01729 47.55818 3161 ft 125 kts 284°
2026-04-17 15:15 43.01702 47.54691 2958 ft 116 kts 241°
2026-04-17 15:15 43.01179 47.53948 2756 ft 106 kts 198°
2026-04-17 15:15 43.00491 47.53936 2557 ft 100 kts 158°
2026-04-17 15:16 42.99882 47.54358 2420 ft 94 kts 149°
2026-04-17 15:16 42.99283 47.54740 2401 ft 98 kts 170°
2026-04-17 15:16 42.98593 47.54653 2403 ft 100 kts 186°
2026-04-17 15:16 42.97926 47.54384 2402 ft 100 kts 193°
2026-04-17 15:17 42.97269 47.54077 2402 ft 99 kts 193°
2026-04-17 15:17 42.96616 47.53775 2401 ft 98 kts 189°
2026-04-17 15:17 42.95961 47.53800 2402 ft 94 kts 166°
2026-04-17 15:17 42.95332 47.54048 2403 ft 93 kts 158°
2026-04-17 15:18 42.94732 47.54386 2402 ft 93 kts 154°
2026-04-17 15:18 42.94150 47.54774 2402 ft 93 kts 152°
2026-04-17 15:18 42.93580 47.55195 2402 ft 93 kts 150°
2026-04-17 15:18 42.93019 47.55636 2402 ft 93 kts 149°
2026-04-17 15:19 42.92440 47.56107 2317 ft 100 kts 148°
2026-04-17 15:19 42.91846 47.56600 2204 ft 100 kts 148°
2026-04-17 15:19 42.91257 47.57094 2082 ft 97 kts 148°
2026-04-17 15:19 42.90705 47.57561 1961 ft 91 kts 148°
2026-04-17 15:20 42.90187 47.58001 1861 ft 82 kts 148°
2026-04-17 15:20 42.89721 47.58398 1749 ft 76 kts 148°
2026-04-17 15:20 42.89285 47.58771 1646 ft 72 kts 148°
2026-04-17 15:20 42.88869 47.59126 1549 ft 68 kts 148°
2026-04-17 15:21 42.88472 47.59465 1457 ft 66 kts 148°
2026-04-17 15:21 42.88102 47.59782 1379 ft 60 kts 148°
2026-04-17 15:21 42.87759 47.60075 1298 ft 57 kts 148°
2026-04-17 15:21 42.87423 47.60362 1219 ft 57 kts 147°
2026-04-17 15:22 42.87078 47.60657 1142 ft 59 kts 148°
2026-04-17 15:22 42.86726 47.60959 1059 ft 60 kts 147°
2026-04-17 15:22 42.86374 47.61277 988 ft 60 kts 148°
2026-04-17 15:22 42.86022 47.61574 918 ft 60 kts 147°
2026-04-17 15:23 42.85672 47.61886 843 ft 60 kts 147°
2026-04-17 15:23 42.85318 47.62180 761 ft 60 kts 150°
2026-04-17 15:23 42.84948 47.62466 649 ft 61 kts 148°
2026-04-17 15:23 42.84590 47.62790 547 ft 62 kts 148°
2026-04-17 15:24 42.84219 47.63090 456 ft 62 kts 149°
2026-04-17 15:24 42.83863 47.63386 371 ft 59 kts 148°
2026-04-17 15:24 42.83517 47.63682 303 ft 58 kts 149°
2026-04-17 15:24 42.83170 47.63982 237 ft 59 kts 150°
2026-04-17 15:25 42.82814 47.64286 146 ft 61 kts 149°
2026-04-17 15:25 42.82454 47.64587 25 ft 56 kts 149°
2026-04-17 15:25 42.82161 47.64833 16 ft 44 kts 148°
2026-04-17 15:25 42.81960 47.65004 16 ft 28 kts 147°
2026-04-17 15:26 42.81798 47.65142 16 ft 27 kts 149°
2026-04-17 15:26 42.81683 47.65240 16 ft 12 kts 146°
2026-04-17 15:26 42.81657 47.65314 16 ft 8 kts 65°
2026-04-17 15:26 42.81694 47.65404 16 ft 7 kts 54°
2026-04-17 15:27 42.81697 47.65410 16 ft 0 kts 59°
2026-04-17 15:27 42.81697 47.65411 16 ft 0 kts 59°
2026-04-17 15:27 42.81706 47.65429 16 ft 7 kts 58°
2026-04-17 15:28 42.81746 47.65516 16 ft 11 kts 54°
2026-04-17 15:28 42.81798 47.65578 16 ft 0 kts 34°
2026-04-17 15:28 42.81799 47.65578 16 ft 0 kts 35°
2026-04-17 15:29 42.81815 47.65609 16 ft 9 kts 79°
2026-04-17 15:29 42.81782 47.65686 16 ft 11 kts 129°
2026-04-17 15:29 42.81782 47.65768 16 ft 11 kts 38°
2026-04-17 15:29 42.81788 47.65816 16 ft 2 kts 124°
2026-04-17 15:30 42.81773 47.65843 16 ft 6 kts 128°
2026-04-17 15:30 42.81771 47.65847 16 ft 0 kts 127°